GPS BIII-2 (PRN 18)

Last updated on Thu Aug 20 2026 00:03:18 GMT+0000 (Coordinated Universal Time)

1 44506U 19056A 26231.49241552 -.00000109 00000+0 00000+0 0 9995 2 44506 55.6017 328.6258 0064944 199.1187 179.2026 2.00570991 51345
UTC large
Height (km)
Speed (km/s)
/
Latitude / Longitude
Inclination (degrees)
Orbital Period (minutes)
Azimuth
Elevation
Range (km)
Doppler Factor

Next 0 passes for location: London (51.5072 / 0.1276)

No passes found over London.
GPS BIII-2 (PRN 18)